Wind_Speed
22 23 23 23 23 23 24 24 25 24 24 24 25 26 26 26 27 28 28 28 28 29 29 29 29 29 30 31 32 33 35 37 37 39 40 42 44 45 46 46 46 46 47 46
21 22 23 22 23 24 24 24 24 23 23 24 25 25 25 25 26 26 26 28 27 27 29 28 27 27 29 29 30 32 33 35 36 37 38 39 41 43 44 45 45 45 46 46
21 21 22 22 22 23 24 23 23 23 22 23 23 23 24 24 24 24 25 25 25 26 27 28 28 28 29 29 30 31 32 32 33 35 36 37 39 41 42 43 44 45 45 46
21 21 22 22 22 23 23 23 23 23 23 23 23 23 23 24 24 23 23 24 25 25 26 27 27 28 28 29 31 32 33 33 33 35 35 36 37 39 40 42 43 43 44 44
22 22 22 21 22 23 23 23 23 23 23 23 24 24 23 23 23 23 23 23 24 25 26 27 27 27 27 28 29 30 31 32 33 34 35 36 36 37 39 40 41 42 43 42
22 23 22 21 22 22 23 23 22 23 23 24 24 23 22 22 23 23 22 23 23 24 26 27 27 27 27 27 28 28 29 30 31 32 34 35 36 37 38 39 40 41 42 42
21 21 21 21 21 22 22 22 22 22 22 23 22 22 21 21 21 21 21 21 22 24 25 26 26 26 27 27 27 27 28 29 30 32 34 35 36 36 37 37 39 40 41 41
21 21 20 21 21 21 21 21 21 21 21 21 21 21 20 21 21 21 21 21 22 23 24 24 24 24 25 26 27 27 28 29 30 32 33 34 34 35 36 36 37 38 39 40
21 20 21 20 21 20 21 20 20 21 21 21 21 21 20 21 21 21 21 22 22 22 22 22 23 23 23 24 25 26 28 29 30 30 31 31 32 33 34 34 35 36 37 38
20 20 21 21 21 21 21 21 21 21 21 22 22 22 22 22 22 22 21 22 22 21 21 22 23 23 23 23 24 25 26 27 27 27 28 29 30 31 31 31 32 33 33 35
20 21 21 20 20 21 21 21 21 21 22 22 22 22 22 22 21 20 20 21 21 21 21 22 23 23 23 23 23 23 23 23 24 25 26 27 28 28 29 29 29 29 30 31
20 20 20 21 21 21 21 22 22 22 22 22 21 21 22 21 20 20 20 20 20 20 21 21 22 22 22 22 21 22 22 22 23 23 24 25 25 26 26 26 26 26 26 27
20 20 20 21 21 21 21 21 22 22 22 21 20 20 20 20 20 20 20 20 20 20 21 21 21 21 21 22 21 20 20 20 21 22 22 23 23 23 24 24 24 24 23 24
20 20 20 20 20 20 20 20 21 21 20 20 19 19 19 19 20 20 20 20 20 20 20 21 21 21 20 20 20 20 20 20 21 21 22 22 22 22 22 22 23 23 22 22
19 19 19 20 20 20 20 20 20 20 19 20 19 19 19 19 19 19 19 20 20 21 21 20 20 20 19 19 20 20 20 20 20 20 20 20 21 21 22 22 22 22 21 21
18 18 19 19 19 19 20 20 19 19 19 19 19 19 19 19 19 19 19 19 20 20 20 20 20 19 19 19 19 20 20 19 19 19 19 18 18 19 19 19 19 19 19 19
17 17 18 18 18 18 18 18 18 18 18 18 18 18 18 18 19 19 19 20 19 19 20 20 20 20 20 20 20 20 19 19 20 19 18 18 18 18 18 17 18 17 17 18
17 17 17 18 18 17 17 18 18 18 18 18 18 17 18 18 19 19 19 19 19 20 20 20 20 20 20 20 20 19 19 19 19 19 19 19 18 18 17 17 17 17 17 18
16 17 17 17 17 17 17 17 17 18 18 18 17 18 18 18 19 19 19 20 20 20 21 21 20 21 21 20 20 19 19 19 19 19 18 17 17 17 16 16 16 17 17 17
16 17 17 17 17 17 17 18 18 18 18 18 18 18 19 19 19 19 20 20 20 21 21 21 21 21 21 21 20 20 20 19 19 18 18 17 16 16 16 15 15 16 17 17
16 17 17 17 17 17 18 18 17 18 18 18 18 19 19 19 20 20 20 20 20 21 21 20 20 20 20 20 20 19 19 18 18 18 18 17 16 16 15 15 16 16 16 17
16 17 17 18 18 18 18 18 18 18 18 18 18 19 19 20 20 20 20 20 20 20 19 19 19 19 19 19 19 19 18 18 18 18 17 17 16 15 15 15 16 16 16 16
17 18 18 18 18 19 19 19 18 18 19 19 19 20 20 20 20 20 20 20 20 19 18 18 18 19 19 19 19 19 18 17 17 17 17 17 17 16 16 16 16 15 16 16
18 19 19 19 19 19 19 19 19 20 20 20 21 21 20 20 20 20 20 19 19 19 19 19 19 19 19 18 18 18 17 17 17 17 17 17 17 16 16 16 16 16 16 15
19 19 19 19 19 19 19 20 20 20 21 21 21 21 20 20 20 20 20 19 19 19 18 18 17 16 16 16 16 16 16 16 15 15 15 15 15 15 15 15 15 15 15 14
20 20 20 20 20 19 20 20 21 21 21 21 21 21 21 21 20 20 20 19 18 18 17 16 15 15 14 14 14 14 14 14 15 14 14 14 14 13 13 14 14 14 14 13
20 20 20 20 19 20 20 20 21 21 21 21 21 21 21 20 20 19 18 18 17 16 15 14 14 14 13 13 13 13 14 14 14 13 13 13 12 12 12 12 12 13 13 13
Wind_Direction
279 278 278 276 275 276 278 282 282 283 282 283 281 279 277 273 271 270 268 266 266 266 267 268 267 265 262 258 256 253 251 250 249 249 248 247 247 247 249 250 251 252 252 252
278 277 277 276 275 277 279 282 284 283 284 282 282 280 278 276 275 274 271 267 265 265 267 266 265 264 262 259 257 256 255 252 250 250 250 250 249 249 250 250 251 252 253 253
277 278 278 276 277 279 281 283 285 283 283 282 282 281 277 277 278 276 272 270 267 267 270 268 266 266 264 260 259 260 258 256 254 252 251 252 252 252 250 250 251 252 253 254
278 278 278 281 278 278 281 282 284 283 283 283 282 281 279 278 278 276 273 270 269 269 270 270 268 266 265 264 263 262 259 258 257 254 252 252 253 252 252 251 251 253 253 255
278 279 281 281 282 283 282 282 282 283 282 283 282 282 280 277 277 276 273 270 270 271 272 271 270 268 265 264 266 264 261 259 257 254 252 253 253 254 254 253 253 254 253 253
281 282 284 284 284 284 284 283 283 283 283 283 283 281 279 277 277 277 274 274 275 275 275 274 271 269 266 266 266 264 260 259 256 255 254 255 256 257 258 257 256 255 254 254
283 284 286 287 286 286 286 288 286 284 284 284 283 282 280 277 278 278 277 276 278 278 277 276 274 270 268 267 267 265 261 260 258 257 257 258 259 260 261 260 259 257 255 254
282 284 286 290 289 288 288 287 287 285 284 283 283 284 282 279 279 279 278 278 279 280 280 277 276 274 270 268 267 265 264 263 261 260 260 260 260 261 261 260 259 258 257 256
283 284 285 288 291 291 289 287 287 285 284 283 282 283 283 281 281 280 279 279 280 280 279 276 275 274 272 270 269 267 265 264 263 263 262 262 261 261 261 260 260 260 259 258
282 282 284 287 288 288 288 288 287 286 285 284 283 282 282 282 283 282 280 278 278 277 277 276 276 275 274 273 271 270 268 266 264 264 263 263 263 262 262 262 261 260 260 260
285 283 283 286 287 287 287 287 288 286 286 285 283 283 283 284 283 282 280 278 277 277 277 278 278 278 276 274 274 271 269 269 268 266 265 264 264 264 263 263 263 262 261 259
286 286 284 285 286 286 286 287 288 288 287 286 286 284 284 284 282 281 281 280 279 278 278 279 280 280 278 277 277 275 273 272 271 269 269 268 267 266 266 266 265 265 263 258
284 285 285 285 285 286 287 288 289 290 290 289 288 285 283 283 280 280 280 279 279 279 279 279 280 280 281 280 277 275 273 274 272 270 271 271 270 268 267 266 266 266 265 258
282 283 285 286 285 287 288 289 290 290 290 290 290 288 285 282 280 279 279 278 278 279 280 280 279 279 280 280 278 275 274 275 274 273 272 271 271 271 270 268 267 266 263 256
280 281 283 284 285 288 289 289 289 289 289 288 288 288 286 284 282 282 282 281 280 281 282 282 282 281 280 280 280 279 277 276 276 274 274 273 272 270 269 270 268 264 259 255
280 280 282 284 285 287 288 288 288 288 287 286 286 287 287 286 285 285 284 283 283 283 284 283 283 282 282 282 283 281 279 278 278 277 276 275 274 274 272 270 266 263 258 255
280 280 282 284 286 288 288 288 288 289 288 287 287 287 288 287 287 287 287 286 286 286 286 285 284 282 281 283 283 282 280 278 279 278 277 277 276 275 274 270 265 259 256 255
279 281 283 285 286 288 289 288 289 289 288 288 288 288 290 291 291 290 289 288 287 287 287 286 284 284 284 283 282 281 279 279 278 277 275 275 274 273 270 266 262 258 255 254
279 281 284 286 287 289 291 290 290 290 289 288 288 288 289 291 294 293 291 288 287 288 287 285 283 283 282 281 281 280 279 278 277 276 276 276 273 271 269 265 260 258 256 254
280 281 283 285 286 288 291 292 292 291 290 288 288 289 289 291 294 295 293 291 289 287 285 284 282 280 280 279 278 279 279 277 275 274 274 276 275 271 266 262 259 258 257 256
285 284 285 286 286 288 290 291 291 291 291 290 289 290 290 291 294 295 294 293 292 289 286 284 282 280 278 277 277 278 277 274 272 271 273 274 273 268 262 257 259 261 259 257
288 289 289 287 285 286 288 290 291 291 293 294 293 293 293 293 293 293 293 292 292 291 289 285 282 280 278 277 276 277 276 272 269 269 269 270 270 267 261 258 260 261 260 259
289 291 292 289 286 285 286 287 289 291 293 294 294 295 295 294 294 293 291 291 291 290 288 286 284 282 280 277 275 274 273 270 268 268 268 267 267 264 260 258 258 258 258 258
289 291 292 290 287 284 284 285 288 290 292 293 294 295 295 295 294 293 292 291 291 289 287 286 284 282 280 278 275 273 271 269 267 267 268 268 266 263 259 256 255 257 258 257
288 289 291 290 288 285 284 286 288 290 292 293 294 294 294 294 294 293 292 292 292 291 289 287 283 280 279 277 276 274 271 268 266 265 266 266 265 263 258 254 253 254 255 255
289 290 291 290 288 288 288 289 290 292 293 293 293 293 292 292 293 293 293 293 292 290 288 285 280 278 278 277 275 274 271 267 265 264 263 262 261 258 255 253 251 250 250 250
293 292 292 291 289 290 291 291 291 291 292 292 292 291 290 290 291 291 292 292 290 289 286 284 280 276 275 275 275 274 272 268 265 264 263 260 256 252 251 250 248 247 244 244
Height
5574 5573 5572 5571 5570 5568 5566 5565 5563 5563 5561 5560 5557 5555 5553 5552 5551 5550 5549 5549 5549 5549 5548 5548 5547 5547 5546 5546 5547 5548 5549 5552 5554 5557 5561 5564 5568 5571 5575 5578 5581 5583 5586 5589
5568 5566 5564 5564 5563 5562 5560 5558 5557 5555 5555 5553 5550 5548 5546 5544 5543 5542 5542 5541 5541 5541 5541 5540 5540 5539 5539 5538 5539 5540 5541 5543 5545 5548 5551 5554 5557 5560 5563 5566 5569 5571 5574 5577
5561 5559 5557 5557 5557 5555 5554 5552 5551 5549 5549 5545 5543 5541 5539 5538 5536 5535 5534 5534 5534 5534 5533 5533 5532 5532 5532 5531 5531 5532 5533 5535 5536 5539 5542 5544 5547 5549 5552 5554 5557 5560 5562 5564
5553 5553 5551 5554 5550 5549 5547 5546 5544 5542 5541 5539 5537 5535 5533 5531 5530 5529 5528 5527 5527 5526 5526 5526 5525 5524 5524 5524 5523 5524 5525 5526 5528 5530 5532 5534 5537 5539 5541 5543 5546 5548 5550 5552
5547 5545 5545 5546 5544 5542 5540 5539 5538 5536 5534 5532 5530 5529 5528 5525 5524 5522 5521 5521 5520 5520 5519 5518 5518 5517 5516 5516 5516 5516 5517 5518 5519 5521 5523 5525 5527 5529 5531 5532 5534 5536 5538 5540
5540 5538 5538 5540 5538 5535 5534 5533 5531 5529 5527 5526 5524 5523 5522 5519 5518 5516 5515 5514 5514 5513 5512 5511 5510 5510 5509 5508 5508 5509 5509 5510 5511 5512 5514 5516 5518 5519 5520 5522 5523 5524 5526 5528
5534 5532 5532 5533 5531 5529 5529 5528 5525 5522 5521 5519 5517 5516 5515 5513 5512 5510 5509 5508 5507 5507 5506 5505 5504 5503 5502 5501 5501 5501 5501 5502 5503 5504 5505 5507 5508 5509 5510 5511 5512 5513 5515 5517
5528 5527 5529 5526 5524 5523 5522 5519 5517 5516 5514 5513 5511 5510 5508 5507 5506 5505 5503 5502 5501 5500 5499 5498 5497 5496 5495 5495 5494 5494 5494 5494 5494 5495 5496 5497 5498 5499 5500 5500 5501 5502 5504 5506
5523 5523 5521 5519 5517 5516 5514 5513 5511 5509 5508 5507 5505 5504 5503 5501 5500 5499 5498 5496 5495 5494 5493 5491 5490 5489 5489 5488 5487 5486 5486 5486 5486 5486 5486 5487 5488 5489 5489 5490 5491 5492 5493 5494
5516 5515 5514 5512 5511 5509 5508 5506 5505 5503 5502 5500 5499 5498 5497 5495 5494 5493 5491 5490 5489 5488 5487 5486 5484 5483 5482 5481 5480 5479 5478 5478 5478 5478 5478 5478 5478 5479 5479 5480 5480 5481 5482 5483
5509 5509 5507 5506 5504 5503 5501 5500 5499 5497 5496 5494 5493 5491 5490 5489 5488 5486 5485 5484 5483 5482 5481 5480 5478 5477 5475 5474 5473 5472 5471 5471 5470 5470 5470 5470 5470 5470 5470 5471 5471 5472 5472 5473
5504 5503 5501 5500 5498 5497 5495 5494 5492 5491 5490 5488 5486 5485 5484 5482 5481 5480 5479 5478 5477 5476 5475 5474 5472 5471 5469 5468 5467 5466 5465 5464 5463 5463 5463 5463 5462 5462 5462 5462 5462 5462 5463 5464
5498 5496 5495 5494 5492 5491 5489 5488 5486 5485 5483 5482 5480 5479 5477 5476 5475 5474 5473 5472 5471 5470 5469 5467 5466 5465 5463 5461 5460 5459 5458 5458 5457 5456 5456 5455 5455 5455 5455 5455 5454 5454 5455 5456
5491 5490 5489 5487 5486 5485 5483 5482 5480 5479 5477 5475 5474 5472 5471 5470 5469 5468 5467 5466 5465 5464 5463 5461 5460 5458 5457 5456 5454 5453 5452 5451 5451 5450 5449 5448 5448 5448 5448 5448 5448 5448 5448 5449
5484 5483 5482 5481 5480 5478 5477 5476 5474 5473 5471 5470 5468 5467 5466 5465 5464 5462 5461 5460 5459 5458 5457 5455 5453 5452 5451 5449 5448 5447 5446 5445 5444 5443 5442 5442 5441 5441 5441 5441 5441 5442 5442 5443
5478 5477 5476 5475 5474 5472 5471 5469 5468 5466 5465 5464 5462 5461 5460 5459 5458 5456 5455 5454 5453 5452 5450 5449 5447 5446 5445 5443 5442 5441 5440 5439 5438 5437 5436 5435 5435 5435 5435 5435 5435 5436 5436 5438
5472 5471 5470 5469 5468 5467 5465 5464 5462 5461 5459 5458 5456 5455 5454 5453 5452 5450 5449 5448 5446 5445 5444 5443 5441 5440 5439 5437 5436 5435 5434 5433 5432 5431 5430 5430 5429 5429 5429 5429 5429 5430 5431 5432
5466 5465 5464 5463 5462 5461 5459 5458 5457 5455 5454 5452 5451 5449 5448 5447 5445 5444 5443 5441 5440 5439 5437 5436 5435 5433 5432 5431 5430 5429 5428 5427 5426 5425 5425 5424 5424 5423 5423 5423 5424 5425 5426 5426
5460 5459 5459 5457 5456 5455 5454 5452 5451 5449 5448 5447 5445 5444 5443 5441 5439 5438 5436 5435 5433 5432 5431 5429 5428 5427 5426 5425 5424 5423 5422 5421 5420 5419 5419 5418 5418 5418 5418 5418 5418 5419 5420 5421
5454 5453 5453 5452 5450 5449 5448 5447 5445 5444 5442 5441 5440 5438 5437 5435 5433 5432 5430 5428 5427 5425 5424 5423 5421 5420 5419 5418 5417 5416 5415 5414 5414 5413 5413 5413 5413 5412 5412 5413 5413 5414 5415 5416
5448 5448 5447 5446 5445 5443 5442 5441 5439 5438 5436 5435 5434 5432 5431 5429 5427 5425 5423 5422 5420 5418 5417 5416 5414 5413 5412 5411 5411 5410 5409 5408 5408 5408 5408 5407 5407 5407 5407 5408 5408 5409 5410 5410
5443 5442 5441 5440 5438 5437 5436 5435 5434 5432 5431 5429 5427 5426 5424 5422 5421 5419 5417 5415 5414 5412 5410 5409 5408 5407 5406 5405 5404 5404 5403 5402 5402 5402 5402 5402 5402 5402 5402 5402 5403 5404 5405 5405
5437 5436 5434 5433 5432 5431 5430 5429 5428 5426 5425 5423 5421 5420 5418 5416 5414 5412 5411 5409 5407 5405 5404 5403 5401 5400 5399 5399 5398 5397 5397 5396 5396 5396 5396 5396 5396 5396 5396 5397 5398 5398 5399 5400
5431 5429 5428 5427 5426 5424 5424 5423 5421 5420 5418 5417 5415 5413 5411 5409 5407 5405 5404 5402 5400 5399 5397 5396 5395 5394 5392 5392 5391 5391 5391 5390 5390 5390 5390 5390 5390 5391 5391 5392 5393 5393 5394 5395
5424 5423 5421 5420 5419 5418 5417 5416 5415 5413 5412 5410 5408 5406 5404 5402 5401 5399 5397 5395 5394 5392 5391 5389 5388 5387 5386 5386 5385 5385 5385 5384 5384 5384 5384 5385 5385 5385 5386 5386 5387 5388 5389 5390
5417 5416 5415 5413 5412 5411 5410 5409 5408 5406 5405 5403 5401 5399 5397 5395 5393 5392 5390 5389 5387 5386 5384 5383 5382 5381 5381 5380 5380 5379 5379 5379 5379 5379 5379 5379 5379 5380 5380 5381 5382 5383 5384 5385
5411 5409 5408 5407 5405 5404 5403 5402 5401 5399 5397 5396 5394 5393 5391 5389 5387 5385 5383 5382 5381 5379 5378 5377 5376 5376 5375 5375 5374 5374 5373 5373 5373 5373 5373 5373 5374 5375 5375 5376 5377 5378 5379 5380